| time (UTC) | temp C | wind direction | speed KPH | gust KPH | rain 1hr cm | rain 24hr cm | rain mn cm | humidity % | barometer mb |
| 20260507051004 | 13 | 281 | 1.6 | 6.4 | 0.00 | 0.23 | 0.00 | 81 | 1006.7 |
| 20260507050503 | 13 | 304 | 3.2 | 6.4 | 0.00 | 0.23 | 0.00 | 82 | 1006.6 |
| 20260507050008 | 14 | 288 | 3.2 | 4.8 | 0.00 | 0.23 | 0.00 | 83 | 1006.6 |
| 20260507045504 | 14 | 10 | 1.6 | 6.4 | 0.00 | 0.23 | 0.00 | 85 | 1006.6 |
| 20260507045004 | 14 | 294 | 3.2 | 6.4 | 0.00 | 0.23 | 0.00 | 85 | 1006.6 |
| 20260507044527 | 14 | 287 | 3.2 | 4.8 | 0.00 | 0.23 | 0.00 | 85 | 1006.7 |
| 20260507044003 | 15 | 300 | 3.2 | 6.4 | 0.00 | 0.23 | 0.00 | 85 | 1006.7 |
| 20260507043503 | 15 | 295 | 4.8 | 6.4 | 0.00 | 0.23 | 0.00 | 85 | 1006.6 |
| 20260507043010 | 15 | 290 | 3.2 | 6.4 | 0.00 | 0.23 | 0.00 | 86 | 1006.6 |
| 20260507042503 | 15 | 287 | 3.2 | 8.0 | 0.00 | 0.23 | 0.00 | 86 | 1006.5 |
| 20260507042002 | 15 | 279 | 3.2 | 8.0 | 0.00 | 0.23 | 0.00 | 87 | 1006.5 |
| 20260507041510 | 15 | 266 | 3.2 | 8.0 | 0.00 | 0.23 | 0.00 | 88 | 1006.6 |
| 20260507041004 | 15 | 292 | 3.2 | 6.4 | 0.00 | 0.23 | 0.00 | 89 | 1006.5 |
| 20260507040503 | 15 | 286 | 1.6 | 3.2 | 0.00 | 0.23 | 0.00 | 90 | 1006.6 |
| 20260507040011 | 15 | 268 | 1.6 | 3.2 | 0.00 | 0.23 | 0.00 | 90 | 1006.7 |
| 20260507035504 | 15 | 285 | 1.6 | 3.2 | 0.00 | 0.23 | 0.23 | 90 | 1006.8 |
| 20260507035002 | 15 | 288 | 1.6 | 3.2 | 0.00 | 0.23 | 0.23 | 90 | 1006.8 |
| 20260507034514 | 15 | 296 | 1.6 | 3.2 | 0.00 | 0.23 | 0.23 | 90 | 1006.8 |
| 20260507034003 | 15 | 217 | 1.6 | 3.2 | 0.00 | 0.23 | 0.23 | 91 | 1006.7 |
| 20260507033503 | 15 | 253 | 1.6 | 4.8 | 0.00 | 0.23 | 0.23 | 91 | 1006.6 |
| 20260507033010 | 15 | 222 | 0.0 | 4.8 | 0.00 | 0.23 | 0.23 | 91 | 1006.4 |
| 20260507032504 | 15 | 295 | 0.0 | 3.2 | 0.00 | 0.23 | 0.23 | 91 | 1006.4 |
| 20260507032004 | 15 | 311 | 0.0 | 3.2 | 0.00 | 0.23 | 0.23 | 91 | 1006.4 |
| 20260507031515 | 15 | 262 | 0.0 | 3.2 | 0.00 | 0.23 | 0.23 | 91 | 1006.5 |
| 20260507031004 | 15 | 321 | 0.0 | 3.2 | 0.00 | 0.23 | 0.23 | 91 | 1006.3 |
| 20260507030506 | 15 | 265 | 0.0 | 3.2 | 0.00 | 0.23 | 0.23 | 91 | 1006.2 |
| 20260507030012 | 15 | 193 | 0.0 | 3.2 | 0.00 | 0.23 | 0.23 | 91 | 1006.1 |
| 20260507025503 | 15 | 8 | 0.0 | 4.8 | 0.00 | 0.23 | 0.23 | 91 | 1006.1 |
| 20260507025003 | 15 | 63 | 0.0 | 4.8 | 0.00 | 0.23 | 0.23 | 91 | 1006.2 |
| 20260507024515 | 15 | 248 | 0.0 | 3.2 | 0.00 | 0.23 | 0.23 | 91 | 1006.0 |
| 20260507024003 | 15 | 282 | 0.0 | 3.2 | 0.00 | 0.23 | 0.23 | 91 | 1005.8 |
| 20260507023504 | 15 | 186 | 0.0 | 3.2 | 0.00 | 0.23 | 0.23 | 91 | 1006.0 |
| 20260507023012 | 14 | 280 | 1.6 | 3.2 | 0.00 | 0.23 | 0.23 | 91 | 1006.1 |
| 20260507022504 | 14 | 306 | 0.0 | 4.8 | 0.00 | 0.23 | 0.23 | 91 | 1006.2 |
| 20260507022005 | 14 | 179 | 1.6 | 4.8 | 0.00 | 0.23 | 0.23 | 91 | 1006.0 |
| 20260507021519 | 14 | 265 | 1.6 | 4.8 | 0.00 | 0.23 | 0.23 | 91 | 1005.9 |
| 20260507021002 | 14 | 139 | 0.0 | 4.8 | 0.00 | 0.23 | 0.23 | 91 | 1005.9 |
| 20260507020508 | 14 | 212 | 1.6 | 3.2 | 0.00 | 0.23 | 0.23 | 92 | 1006.0 |
| 20260507020016 | 14 | 217 | 0.0 | 8.0 | 0.00 | 0.23 | 0.23 | 91 | 1006.1 |
| 20260507015503 | 14 | 229 | 1.6 | 8.0 | 0.00 | 0.23 | 0.23 | 91 | 1006.1 |
| 20260507015003 | 14 | 233 | 0.0 | 6.4 | 0.00 | 0.23 | 0.23 | 92 | 1006.1 |
| 20260507014515 | 14 | 343 | 0.0 | 6.4 | 0.00 | 0.23 | 0.23 | 91 | 1005.9 |
| 20260507014003 | 14 | 181 | 0.0 | 4.8 | 0.00 | 0.23 | 0.23 | 91 | 1005.9 |
| 20260507013504 | 14 | 199 | 0.0 | 6.4 | 0.00 | 0.23 | 0.23 | 91 | 1005.9 |
| 20260507013013 | 14 | 173 | 1.6 | 6.4 | 0.00 | 0.23 | 0.23 | 92 | 1006.1 |
| 20260507012503 | 14 | 163 | 0.0 | 3.2 | 0.00 | 0.23 | 0.23 | 91 | 1006.2 |
| 20260507012006 | 14 | 116 | 0.0 | 3.2 | 0.00 | 0.23 | 0.23 | 92 | 1006.2 |
| 20260507011515 | 14 | 196 | 0.0 | 3.2 | 0.00 | 0.23 | 0.23 | 91 | 1006.4 |
| 20260507011007 | 14 | 126 | 0.0 | 4.8 | 0.00 | 0.23 | 0.23 | 91 | 1006.4 |
| 20260507010507 | 14 | 186 | 1.6 | 4.8 | 0.03 | 0.23 | 0.23 | 91 | 1006.5 |
| 20260507010020 | 14 | 239 | 0.0 | 8.0 | 0.03 | 0.23 | 0.23 | 91 | 1006.4 |
| 20260507005503 | 14 | 227 | 1.6 | 8.0 | 0.03 | 0.23 | 0.23 | 91 | 1006.4 |
| 20260507005008 | 14 | 178 | 1.6 | 4.8 | 0.03 | 0.23 | 0.23 | 91 | 1006.5 |
| 20260507004512 | 14 | 128 | 0.0 | 8.0 | 0.03 | 0.23 | 0.23 | 91 | 1006.4 |
| 20260507004003 | 14 | 158 | 1.6 | 8.0 | 0.03 | 0.23 | 0.23 | 91 | 1006.5 |
| 20260507003508 | 14 | 313 | 1.6 | 6.4 | 0.03 | 0.23 | 0.23 | 91 | 1006.4 |
| 20260507003021 | 14 | 360 | 0.0 | 4.8 | 0.05 | 0.23 | 0.23 | 91 | 1006.3 |
| 20260507002505 | 14 | 56 | 0.0 | 4.8 | 0.05 | 0.23 | 0.23 | 91 | 1006.3 |
| 20260507002008 | 14 | 115 | 0.0 | 4.8 | 0.05 | 0.23 | 0.23 | 91 | 1006.2 |
| 20260507001522 | 14 | 226 | 0.0 | 12.9 | 0.08 | 0.23 | 0.23 | 91 | 1006.2 |
| 20260507001007 | 14 | 299 | 0.0 | 12.9 | 0.08 | 0.23 | 0.23 | 91 | 1006.1 |
| 20260507000507 | 14 | 139 | 1.6 | 6.4 | 0.08 | 0.20 | 0.20 | 91 | 1006.0 |
| 20260507000016 | 14 | 189 | 0.0 | 6.4 | 0.10 | 0.20 | 0.20 | 91 | 1006.0 |
| 20260506235508 | 14 | 218 | 0.0 | 6.4 | 0.10 | 0.20 | 0.20 | 91 | 1005.9 |
| 20260506235008 | 14 | 200 | 1.6 | 4.8 | 0.10 | 0.20 | 0.20 | 91 | 1006.0 |
| 20260506234521 | 14 | 180 | 1.6 | 6.4 | 0.10 | 0.20 | 0.20 | 91 | 1006.0 |
| 20260506234007 | 14 | 199 | 0.0 | 9.7 | 0.10 | 0.20 | 0.20 | 91 | 1005.9 |
| 20260506233507 | 14 | 302 | 1.6 | 9.7 | 0.10 | 0.20 | 0.20 | 91 | 1005.9 |
| 20260506233016 | 14 | 12 | 1.6 | 3.2 | 0.08 | 0.18 | 0.18 | 90 | 1006.0 |
| 20260506232504 | 14 | 40 | 0.0 | 3.2 | 0.08 | 0.18 | 0.18 | 90 | 1005.9 |
| 20260506232005 | 15 | 11 | 0.0 | 6.4 | 0.08 | 0.18 | 0.18 | 90 | 1005.9 |
| 20260506231518 | 15 | 247 | 1.6 | 6.4 | 0.05 | 0.15 | 0.15 | 90 | 1005.9 |
| 20260506231007 | 15 | 95 | 0.0 | 6.4 | 0.05 | 0.15 | 0.15 | 90 | 1005.9 |
| 20260506230506 | 15 | 283 | 1.6 | 9.7 | 0.03 | 0.13 | 0.13 | 90 | 1006.0 |
| 20260506230021 | 15 | 186 | 1.6 | 14.5 | 0.00 | 0.10 | 0.10 | 90 | 1005.9 |
| 20260506225507 | 15 | 117 | 0.0 | 14.5 | 0.00 | 0.10 | 0.10 | 90 | 1006.0 |
| 20260506225010 | 15 | 356 | 0.0 | 3.2 | 0.00 | 0.10 | 0.10 | 90 | 1005.9 |
| 20260506224521 | 15 | 353 | 1.6 | 6.4 | 0.00 | 0.10 | 0.10 | 90 | 1006.0 |
| 20260506224005 | 15 | 346 | 0.0 | 6.4 | 0.00 | 0.10 | 0.10 | 90 | 1006.0 |
| 20260506223506 | 15 | 238 | 0.0 | 4.8 | 0.03 | 0.10 | 0.10 | 90 | 1006.1 |
| 20260506223017 | 15 | 234 | 1.6 | 12.9 | 0.03 | 0.10 | 0.10 | 90 | 1006.1 |
| 20260506222506 | 15 | 216 | 3.2 | 12.9 | 0.03 | 0.10 | 0.10 | 90 | 1006.1 |
| 20260506222008 | 15 | 288 | 1.6 | 6.4 | 0.03 | 0.10 | 0.10 | 90 | 1006.1 |
| 20260506221519 | 15 | 264 | 1.6 | 6.4 | 0.03 | 0.10 | 0.10 | 90 | 1006.3 |
| 20260506221007 | 15 | 287 | 0.0 | 6.4 | 0.03 | 0.10 | 0.10 | 90 | 1006.3 |
| 20260506220507 | 15 | 193 | 1.6 | 6.4 | 0.03 | 0.10 | 0.10 | 90 | 1006.4 |
| 20260506220021 | 15 | 23 | 0.0 | 8.0 | 0.03 | 0.10 | 0.10 | 90 | 1006.4 |
| 20260506215504 | 15 | 125 | 1.6 | 8.0 | 0.03 | 0.10 | 0.10 | 90 | 1006.4 |
| 20260506215007 | 15 | 17 | 0.0 | 3.2 | 0.03 | 0.10 | 0.10 | 89 | 1006.4 |
| 20260506214523 | 15 | 229 | 0.0 | 4.8 | 0.03 | 0.10 | 0.10 | 89 | 1006.4 |
| 20260506214008 | 15 | 120 | 1.6 | 4.8 | 0.03 | 0.10 | 0.10 | 88 | 1006.4 |
| 20260506213504 | 15 | 84 | 0.0 | 4.8 | 0.00 | 0.08 | 0.08 | 88 | 1006.6 |
| 20260506213022 | 15 | 335 | 1.6 | 6.4 | 0.00 | 0.08 | 0.08 | 87 | 1006.6 |
| 20260506212508 | 15 | 232 | 3.2 | 6.4 | 0.00 | 0.08 | 0.08 | 86 | 1006.8 |
| 20260506212011 | 16 | 236 | 3.2 | 6.4 | 0.00 | 0.08 | 0.08 | 86 | 1006.7 |
| 20260506211523 | 16 | 174 | 0.0 | 4.8 | 0.00 | 0.08 | 0.08 | 86 | 1006.7 |
| 20260506211006 | 16 | 65 | 1.6 | 4.8 | 0.00 | 0.08 | 0.08 | 85 | 1006.7 |
| 20260506210507 | 16 | 333 | 1.6 | 4.8 | 0.00 | 0.08 | 0.08 | 85 | 1006.7 |
| 20260506210023 | 16 | 264 | 0.0 | 9.7 | 0.00 | 0.08 | 0.08 | 84 | 1006.7 |
| 20260506205511 | 16 | 209 | 1.6 | 9.7 | 0.00 | 0.08 | 0.08 | 84 | 1006.7 |
| 20260506205003 | 16 | 96 | 3.2 | 6.4 | 0.00 | 0.08 | 0.08 | 84 | 1006.8 |
| 20260506204504 | 16 | 359 | 1.6 | 11.3 | 0.03 | 0.08 | 0.08 | 84 | 1006.9 |
| 20260506204004 | 16 | 212 | 1.6 | 12.9 | 0.03 | 0.08 | 0.08 | 85 | 1006.8 |
| 20260506203503 | 16 | 294 | 3.2 | 17.7 | 0.03 | 0.08 | 0.08 | 84 | 1007.0 |
| 20260506203008 | 16 | 252 | 3.2 | 17.7 | 0.03 | 0.08 | 0.08 | 84 | 1007.0 |
| 20260506202504 | 16 | 146 | 1.6 | 17.7 | 0.05 | 0.08 | 0.08 | 83 | 1007.0 |
| 20260506202009 | 16 | 217 | 3.2 | 17.7 | 0.05 | 0.08 | 0.08 | 83 | 1007.1 |
| 20260506201511 | 16 | 1 | 3.2 | 17.7 | 0.05 | 0.08 | 0.08 | 83 | 1007.0 |
| 20260506201007 | 16 | 213 | 3.2 | 8.0 | 0.08 | 0.08 | 0.08 | 84 | 1006.9 |
| 20260506200508 | 16 | 338 | 1.6 | 8.0 | 0.08 | 0.08 | 0.08 | 84 | 1006.8 |
| 20260506200017 | 16 | 250 | 1.6 | 6.4 | 0.08 | 0.08 | 0.08 | 84 | 1006.8 |
| 20260506195507 | 16 | 221 | 1.6 | 6.4 | 0.08 | 0.08 | 0.08 | 84 | 1006.9 |
| 20260506195006 | 16 | 350 | 1.6 | 4.8 | 0.08 | 0.08 | 0.08 | 84 | 1006.8 |
| 20260506194524 | 16 | 288 | 3.2 | 4.8 | 0.05 | 0.05 | 0.05 | 83 | 1006.8 |
| 20260506194004 | 16 | 316 | 0.0 | 11.3 | 0.05 | 0.05 | 0.05 | 83 | 1006.9 |
| 20260506193503 | 16 | 300 | 3.2 | 11.3 | 0.05 | 0.05 | 0.05 | 82 | 1006.9 |
| 20260506193007 | 16 | 124 | 0.0 | 8.0 | 0.05 | 0.05 | 0.05 | 83 | 1007.2 |
| 20260506192505 | 16 | 250 | 1.6 | 4.8 | 0.03 | 0.03 | 0.03 | 82 | 1007.1 |
| 20260506192003 | 16 | 208 | 1.6 | 6.4 | 0.03 | 0.03 | 0.03 | 80 | 1007.0 |
| 20260506191510 | 17 | 13 | 1.6 | 11.3 | 0.03 | 0.03 | 0.03 | 78 | 1007.1 |
| 20260506191004 | 17 | 323 | 1.6 | 14.5 | 0.00 | 0.00 | 0.00 | 77 | 1007.2 |
| 20260506190506 | 17 | 135 | 4.8 | 14.5 | 0.00 | 0.00 | 0.00 | 74 | 1007.2 |
| 20260506190016 | 18 | 266 | 1.6 | 6.4 | 0.00 | 0.00 | 0.00 | 72 | 1007.1 |
| 20260506185505 | 18 | 307 | 1.6 | 6.4 | 0.00 | 0.00 | 0.00 | 70 | 1007.1 |
| 20260506185007 | 19 | 309 | 1.6 | 9.7 | 0.00 | 0.00 | 0.00 | 68 | 1007.0 |
| 20260506184527 | 19 | 323 | 3.2 | 12.9 | 0.00 | 0.00 | 0.00 | 67 | 1007.2 |
| 20260506184007 | 19 | 1 | 3.2 | 12.9 | 0.00 | 0.00 | 0.00 | 64 | 1007.3 |
| 20260506183507 | 20 | 79 | 0.0 | 9.7 | 0.00 | 0.00 | 0.00 | 65 | 1007.2 |
| 20260506183024 | 20 | 293 | 1.6 | 9.7 | 0.00 | 0.00 | 0.00 | 62 | 1007.2 |
| 20260506182503 | 20 | 61 | 1.6 | 8.0 | 0.00 | 0.00 | 0.00 | 61 | 1007.1 |
| 20260506182003 | 20 | 22 | 1.6 | 8.0 | 0.00 | 0.00 | 0.00 | 58 | 1007.3 |
| 20260506181508 | 21 | 345 | 1.6 | 9.7 | 0.00 | 0.00 | 0.00 | 59 | 1007.3 |
| 20260506181004 | 21 | 274 | 4.8 | 9.7 | 0.00 | 0.00 | 0.00 | 57 | 1007.2 |
| 20260506180505 | 21 | 295 | 3.2 | 6.4 | 0.00 | 0.00 | 0.00 | 57 | 1007.3 |
| 20260506180022 | 21 | 360 | 3.2 | 11.3 | 0.00 | 0.00 | 0.00 | 56 | 1007.2 |
| 20260506175506 | 21 | 229 | 3.2 | 11.3 | 0.00 | 0.00 | 0.00 | 56 | 1007.5 |
| 20260506175005 | 21 | 212 | 4.8 | 11.3 | 0.00 | 0.00 | 0.00 | 55 | 1007.4 |
| 20260506174518 | 21 | 336 | 3.2 | 12.9 | 0.00 | 0.00 | 0.00 | 55 | 1007.4 |
| 20260506174008 | 21 | 50 | 1.6 | 12.9 | 0.00 | 0.00 | 0.00 | 54 | 1007.6 |
| 20260506173508 | 21 | 89 | 3.2 | 11.3 | 0.00 | 0.00 | 0.00 | 53 | 1007.6 |
| 20260506173022 | 22 | 295 | 3.2 | 11.3 | 0.00 | 0.00 | 0.00 | 53 | 1007.6 |
| 20260506172509 | 22 | 330 | 4.8 | 12.9 | 0.00 | 0.00 | 0.00 | 52 | 1007.5 |
| 20260506172009 | 22 | 320 | 3.2 | 19.3 | 0.00 | 0.00 | 0.00 | 54 | 1007.6 |
| 20260506171512 | 22 | 355 | 4.8 | 27.4 | 0.00 | 0.00 | 0.00 | 52 | 1007.6 |
| 20260506171001 | 22 | 285 | 8.0 | 27.4 | 0.00 | 0.00 | 0.00 | 52 | 1007.6 |
| 20260506170505 | 22 | 352 | 4.8 | 11.3 | 0.00 | 0.00 | 0.00 | 52 | 1007.6 |
| 20260506170009 | 22 | 340 | 4.8 | 14.5 | 0.00 | 0.00 | 0.00 | 53 | 1007.6 |
| 20260506165505 | 22 | 318 | 4.8 | 14.5 | 0.00 | 0.00 | 0.00 | 54 | 1007.7 |
| 20260506165006 | 22 | 342 | 4.8 | 11.3 | 0.00 | 0.00 | 0.00 | 54 | 1007.8 |
| 20260506164518 | 21 | 100 | 4.8 | 9.7 | 0.00 | 0.00 | 0.00 | 53 | 1007.9 |
| 20260506164009 | 21 | 1 | 1.6 | 16.1 | 0.00 | 0.00 | 0.00 | 54 | 1008.1 |
| 20260506163512 | 22 | 279 | 4.8 | 16.1 | 0.00 | 0.00 | 0.00 | 53 | 1008.0 |
| 20260506163023 | 22 | 89 | 4.8 | 16.1 | 0.00 | 0.00 | 0.00 | 53 | 1008.1 |
| 20260506162509 | 22 | 246 | 3.2 | 9.7 | 0.00 | 0.00 | 0.00 | 54 | 1008.1 |
| 20260506162013 | 22 | 205 | 3.2 | 9.7 | 0.00 | 0.00 | 0.00 | 55 | 1008.2 |
| 20260506161525 | 22 | 83 | 3.2 | 11.3 | 0.00 | 0.00 | 0.00 | 55 | 1008.4 |
| 20260506161009 | 22 | 151 | 3.2 | 11.3 | 0.00 | 0.00 | 0.00 | 54 | 1008.4 |
| 20260506160509 | 22 | 35 | 3.2 | 9.7 | 0.00 | 0.00 | 0.00 | 54 | 1008.4 |
| 20260506160009 | 22 | 340 | 3.2 | 9.7 | 0.00 | 0.00 | 0.00 | 56 | 1008.5 |
| 20260506155503 | 21 | 205 | 1.6 | 12.9 | 0.00 | 0.00 | 0.00 | 56 | 1008.6 |
| 20260506155006 | 21 | 334 | 3.2 | 12.9 | 0.00 | 0.00 | 0.00 | 56 | 1008.8 |
| 20260506154512 | 21 | 283 | 3.2 | 11.3 | 0.00 | 0.00 | 0.00 | 55 | 1008.8 |
| 20260506154008 | 21 | 39 | 3.2 | 9.7 | 0.00 | 0.00 | 0.00 | 55 | 1008.9 |
| 20260506153508 | 21 | 27 | 3.2 | 12.9 | 0.00 | 0.00 | 0.00 | 55 | 1009.0 |
| 20260506153016 | 21 | 162 | 3.2 | 14.5 | 0.00 | 0.00 | 0.00 | 54 | 1009.0 |
| 20260506152505 | 21 | 89 | 3.2 | 14.5 | 0.00 | 0.00 | 0.00 | 56 | 1009.2 |
| 20260506152006 | 21 | 109 | 3.2 | 12.9 | 0.00 | 0.00 | 0.00 | 55 | 1009.2 |
| 20260506151532 | 21 | 314 | 3.2 | 12.9 | 0.00 | 0.00 | 0.00 | 56 | 1009.1 |
| 20260506151014 | 21 | 328 | 1.6 | 11.3 | 0.00 | 0.00 | 0.00 | 55 | 1009.3 |
| 20260506150507 | 22 | 340 | 3.2 | 8.0 | 0.00 | 0.00 | 0.00 | 55 | 1009.3 |
| 20260506150026 | 22 | 14 | 1.6 | 6.4 | 0.00 | 0.00 | 0.00 | 57 | 1009.3 |
| 20260506145517 | 22 | 224 | 1.6 | 8.0 | 0.00 | 0.00 | 0.00 | 56 | 1009.2 |
| 20260506145005 | 21 | 304 | 1.6 | 11.3 | 0.00 | 0.00 | 0.00 | 56 | 1009.4 |
| 20260506144508 | 21 | 315 | 1.6 | 11.3 | 0.00 | 0.00 | 0.00 | 58 | 1009.3 |
| 20260506144008 | 21 | 333 | 1.6 | 17.7 | 0.00 | 0.00 | 0.00 | 58 | 1009.2 |
| 20260506143505 | 21 | 39 | 3.2 | 17.7 | 0.00 | 0.00 | 0.00 | 58 | 1009.2 |
| 20260506143019 | 21 | 158 | 3.2 | 12.9 | 0.00 | 0.00 | 0.00 | 59 | 1009.3 |
| 20260506142508 | 21 | 302 | 1.6 | 12.9 | 0.00 | 0.00 | 0.00 | 60 | 1009.2 |
| 20260506142006 | 21 | 110 | 0.0 | 6.4 | 0.00 | 0.00 | 0.00 | 62 | 1009.1 |
| 20260506141521 | 20 | 295 | 1.6 | 4.8 | 0.00 | 0.00 | 0.00 | 63 | 1009.1 |
| 20260506141011 | 21 | 61 | 1.6 | 8.0 | 0.00 | 0.00 | 0.00 | 62 | 1009.1 |
| 20260506140506 | 20 | 198 | 1.6 | 8.0 | 0.00 | 0.00 | 0.00 | 63 | 1009.2 |
| 20260506140029 | 20 | 21 | 1.6 | 8.0 | 0.00 | 0.00 | 0.00 | 65 | 1009.3 |
| 20260506135510 | 20 | 226 | 1.6 | 9.7 | 0.00 | 0.00 | 0.00 | 65 | 1009.3 |
| 20260506135008 | 20 | 226 | 1.6 | 12.9 | 0.00 | 0.00 | 0.00 | 65 | 1009.3 |
| 20260506134526 | 19 | 111 | 4.8 | 12.9 | 0.00 | 0.00 | 0.00 | 65 | 1009.4 |
| 20260506134002 | 19 | 169 | 1.6 | 8.0 | 0.00 | 0.00 | 0.00 | 67 | 1009.3 |
| 20260506133503 | 18 | 233 | 1.6 | 8.0 | 0.00 | 0.00 | 0.00 | 68 | 1009.5 |
| 20260506133027 | 18 | 213 | 3.2 | 8.0 | 0.00 | 0.00 | 0.00 | 68 | 1009.8 |
| 20260506132508 | 18 | 320 | 1.6 | 9.7 | 0.00 | 0.00 | 0.00 | 68 | 1009.9 |
| 20260506132008 | 18 | 1 | 1.6 | 9.7 | 0.00 | 0.00 | 0.00 | 68 | 1009.8 |
| 20260506131523 | 18 | 110 | 1.6 | 9.7 | 0.00 | 0.00 | 0.00 | 69 | 1009.9 |
| 20260506131006 | 18 | 210 | 3.2 | 9.7 | 0.00 | 0.00 | 0.00 | 69 | 1009.9 |
| 20260506130507 | 18 | 353 | 1.6 | 11.3 | 0.00 | 0.00 | 0.00 | 70 | 1009.8 |
| 20260506130022 | 18 | 338 | 1.6 | 11.3 | 0.00 | 0.00 | 0.00 | 71 | 1009.8 |
| 20260506125509 | 18 | 256 | 1.6 | 9.7 | 0.00 | 0.00 | 0.00 | 71 | 1009.8 |
| 20260506125007 | 17 | 165 | 1.6 | 14.5 | 0.00 | 0.00 | 0.00 | 72 | 1009.7 |
| 20260506124524 | 17 | 231 | 1.6 | 14.5 | 0.00 | 0.00 | 0.00 | 73 | 1009.9 |
| 20260506124009 | 17 | 197 | 1.6 | 8.0 | 0.00 | 0.00 | 0.00 | 73 | 1009.8 |
| 20260506123507 | 17 | 107 | 0.0 | 9.7 | 0.00 | 0.00 | 0.00 | 73 | 1009.9 |
| 20260506123028 | 17 | 281 | 3.2 | 9.7 | 0.00 | 0.00 | 0.00 | 73 | 1010.1 |
| 20260506122503 | 17 | 168 | 1.6 | 9.7 | 0.00 | 0.00 | 0.00 | 73 | 1010.0 |
| 20260506122004 | 17 | 162 | 1.6 | 9.7 | 0.00 | 0.00 | 0.00 | 74 | 1010.0 |
| 20260506121517 | 16 | 327 | 1.6 | 6.4 | 0.00 | 0.00 | 0.00 | 75 | 1009.9 |
| 20260506121003 | 16 | 240 | 1.6 | 6.4 | 0.00 | 0.00 | 0.00 | 75 | 1009.9 |
| 20260506120507 | 16 | 283 | 0.0 | 11.3 | 0.00 | 0.00 | 0.00 | 75 | 1009.9 |
| 20260506120034 | 16 | 117 | 3.2 | 11.3 | 0.00 | 0.00 | 0.00 | 76 | 1009.9 |
| 20260506115512 | 16 | 49 | 1.6 | 4.8 | 0.00 | 0.00 | 0.00 | 77 | 1010.1 |
| 20260506115006 | 16 | 41 | 0.0 | 4.8 | 0.00 | 0.00 | 0.00 | 77 | 1010.2 |
| 20260506114523 | 16 | 168 | 0.0 | 9.7 | 0.00 | 0.00 | 0.00 | 77 | 1010.1 |
| 20260506114005 | 16 | 293 | 0.0 | 9.7 | 0.00 | 0.00 | 0.00 | 77 | 1010.1 |
| 20260506113504 | 16 | 203 | 1.6 | 6.4 | 0.00 | 0.00 | 0.00 | 77 | 1010.3 |
| 20260506113010 | 16 | 178 | 1.6 | 6.4 | 0.00 | 0.00 | 0.00 | 77 | 1010.6 |
| 20260506112503 | 16 | 270 | 0.0 | 6.4 | 0.00 | 0.00 | 0.00 | 77 | 1010.5 |
| 20260506112006 | 16 | 196 | 1.6 | 6.4 | 0.00 | 0.00 | 0.00 | 77 | 1010.4 |
| 20260506111515 | 16 | 207 | 0.0 | 4.8 | 0.00 | 0.00 | 0.00 | 78 | 1010.3 |
| 20260506111006 | 16 | 19 | 1.6 | 4.8 | 0.00 | 0.00 | 0.00 | 78 | 1010.3 |
| 20260506110509 | 15 | 198 | 0.0 | 4.8 | 0.00 | 0.00 | 0.00 | 77 | 1010.2 |
| 20260506110019 | 15 | 258 | 1.6 | 4.8 | 0.00 | 0.00 | 0.00 | 78 | 1010.1 |
| 20260506105506 | 15 | 360 | 1.6 | 4.8 | 0.00 | 0.00 | 0.00 | 78 | 1010.2 |
| 20260506105008 | 15 | 161 | 0.0 | 8.0 | 0.00 | 0.00 | 0.00 | 78 | 1010.1 |
| 20260506104523 | 15 | 296 | 1.6 | 8.0 | 0.00 | 0.00 | 0.00 | 79 | 1010.2 |
| 20260506104008 | 15 | 102 | 1.6 | 3.2 | 0.00 | 0.00 | 0.00 | 79 | 1010.2 |
| 20260506103507 | 15 | 172 | 1.6 | 3.2 | 0.00 | 0.00 | 0.00 | 78 | 1010.3 |
| 20260506103006 | 15 | 270 | 0.0 | 3.2 | 0.00 | 0.00 | 0.00 | 78 | 1010.4 |
| 20260506102504 | 15 | 262 | 0.0 | 3.2 | 0.00 | 0.00 | 0.00 | 78 | 1010.3 |
| 20260506102004 | 15 | 25 | 0.0 | 4.8 | 0.00 | 0.00 | 0.00 | 78 | 1010.4 |
| 20260506101509 | 15 | 313 | 0.0 | 6.4 | 0.00 | 0.00 | 0.00 | 77 | 1010.3 |
| 20260506101010 | 15 | 238 | 1.6 | 6.4 | 0.00 | 0.00 | 0.00 | 78 | 1010.3 |
| 20260506100503 | 15 | 269 | 1.6 | 4.8 | 0.00 | 0.00 | 0.00 | 78 | 1010.2 |
| 20260506100026 | 15 | 219 | 1.6 | 4.8 | 0.00 | 0.00 | 0.00 | 78 | 1010.2 |
| 20260506095505 | 15 | 322 | 1.6 | 6.4 | 0.00 | 0.00 | 0.00 | 78 | 1010.1 |
| 20260506095006 | 15 | 214 | 0.0 | 6.4 | 0.00 | 0.00 | 0.00 | 78 | 1010.1 |
| 20260506094520 | 15 | 188 | 0.0 | 4.8 | 0.00 | 0.00 | 0.00 | 78 | 1010.0 |
| 20260506094011 | 15 | 91 | 1.6 | 4.8 | 0.00 | 0.00 | 0.00 | 78 | 1010.1 |
| 20260506093512 | 15 | 187 | 0.0 | 3.2 | 0.00 | 0.00 | 0.00 | 78 | 1010.1 |
| 20260506093024 | 15 | 67 | 0.0 | 8.0 | 0.00 | 0.00 | 0.00 | 77 | 1010.2 |
| 20260506092509 | 15 | 67 | 0.0 | 8.0 | 0.00 | 0.00 | 0.00 | 77 | 1010.2 |
| 20260506092010 | 15 | 53 | 1.6 | 8.0 | 0.00 | 0.00 | 0.00 | 76 | 1010.2 |
| 20260506091510 | 15 | 226 | 1.6 | 8.0 | 0.00 | 0.00 | 0.00 | 76 | 1010.2 |
| 20260506091004 | 15 | 233 | 1.6 | 8.0 | 0.00 | 0.00 | 0.00 | 76 | 1010.2 |
| 20260506090505 | 15 | 137 | 1.6 | 11.3 | 0.00 | 0.00 | 0.00 | 76 | 1010.2 |
| 20260506090012 | 15 | 160 | 0.0 | 11.3 | 0.00 | 0.00 | 0.00 | 76 | 1010.2 |
| 20260506085504 | 15 | 285 | 0.0 | 9.7 | 0.00 | 0.00 | 0.00 | 76 | 1010.3 |
| 20260506085006 | 15 | 130 | 1.6 | 11.3 | 0.00 | 0.00 | 0.00 | 76 | 1010.3 |
| 20260506084523 | 15 | 281 | 1.6 | 11.3 | 0.00 | 0.00 | 0.00 | 76 | 1010.5 |
| 20260506084008 | 15 | 328 | 1.6 | 4.8 | 0.00 | 0.00 | 0.00 | 76 | 1010.3 |
| 20260506083507 | 15 | 16 | 1.6 | 6.4 | 0.00 | 0.00 | 0.00 | 76 | 1010.3 |
| 20260506083027 | 15 | 270 | 0.0 | 6.4 | 0.00 | 0.00 | 0.00 | 75 | 1010.3 |
| 20260506082506 | 15 | 228 | 0.0 | 4.8 | 0.00 | 0.00 | 0.00 | 75 | 1010.3 |
| 20260506082009 | 15 | 63 | 0.0 | 6.4 | 0.00 | 0.00 | 0.00 | 75 | 1010.3 |
| 20260506081528 | 15 | 235 | 1.6 | 8.0 | 0.00 | 0.00 | 0.00 | 75 | 1010.3 |
| 20260506081015 | 15 | 102 | 1.6 | 8.0 | 0.00 | 0.00 | 0.00 | 74 | 1010.3 |
| 20260506080504 | 16 | 281 | 1.6 | 6.4 | 0.00 | 0.00 | 0.00 | 74 | 1010.4 |
| 20260506073505 | 16 | 349 | 1.6 | 9.7 | 0.00 | 0.00 | 0.00 | 72 | 1010.3 |
| 20260506073021 | 16 | 214 | 3.2 | 9.7 | 0.00 | 0.00 | 0.00 | 72 | 1010.2 |
| 20260506072509 | 16 | 223 | 1.6 | 9.7 | 0.00 | 0.00 | 0.00 | 72 | 1010.2 |
| 20260506072015 | 16 | 210 | 1.6 | 6.4 | 0.00 | 0.00 | 0.00 | 72 | 1010.2 |
| 20260506071525 | 16 | 239 | 3.2 | 9.7 | 0.00 | 0.00 | 0.00 | 72 | 1010.1 |
| 20260506071007 | 16 | 79 | 1.6 | 11.3 | 0.00 | 0.00 | 0.00 | 71 | 1010.1 |
| 20260506070510 | 16 | 176 | 1.6 | 11.3 | 0.00 | 0.00 | 0.00 | 71 | 1010.0 |
| 20260506062507 | 17 | 22 | 0.0 | 12.9 | 0.00 | 0.00 | 0.00 | 68 | 1009.7 |
| 20260506062008 | 17 | 266 | 4.8 | 12.9 | 0.00 | 0.00 | 0.00 | 68 | 1009.7 |
| 20260506061523 | 17 | 71 | 1.6 | 9.7 | 0.00 | 0.00 | 0.00 | 67 | 1009.7 |
| 20260506061006 | 17 | 269 | 1.6 | 9.7 | 0.00 | 0.00 | 0.00 | 67 | 1009.7 |
| 20260506060507 | 17 | 284 | 1.6 | 9.7 | 0.00 | 0.00 | 0.00 | 66 | 1009.7 |